Weather History for KMRF - April, 2013

Change the Weather History Date:

Tuesday, April 23, 2013

  Actual Average Record
Temperature  
Mean Temperature 56 °F -  
Max Temperature 69 °F 74 °F 87 °F (2002)
Min Temperature 42 °F 43 °F 37 °F (2001)
Degree Days  
Heating Degree Days 10    
Growing Degree Days 6 (Base 50)    
Moisture  
Dew Point 25 °F    
Average Humidity 30    
Maximum Humidity 43    
Minimum Humidity 19    
Precipitation  
Precipitation 0.00 in - - ()
Sea Level Pressure  
Sea Level Pressure 30.02 in    
Wind  
Wind Speed 10 mph (NNE)    
Max Wind Speed 22 mph    
Max Gust Speed 26 mph    
Visibility 10 miles    
Events      
Averages and records for this station are not official NWS values.
T = Trace of Precipitation, MM = Missing Value Source: NWS Daily Summary

Daily Weather History Graph

Daily Weather History Graph

Search for Another Location

Airport or City:

Trip Planner

Search our weather history database for the weather conditions in past years. The results will help you decide how hot, cold, wet, or windy it might be!

Date:

Astronomy

Apr. 23, 2013 Rise Set
Actual Time 7:20 AM CDT 8:29 PM CDT
Civil Twilight 6:54 AM CDT 8:54 PM CDT
Nautical Twilight 6:25 AM CDT 9:23 PM CDT
Astronomical Twilight 5:54 AM CDT 9:54 PM CDT
Moon 6:33 PM CDT (4/23) 5:40 AM CDT (4/23)
Length of Visible Light 13h 59m
Length of Day
13h 09m
Waxing Gibbous, 94% of the Moon is Illuminated
Apr 23
Waxing Gibbous
Apr 25
Full
May 2
Last Quarter
May 9
New
May 17
First Quarter

Hourly Weather History & Observations

Time (CDT) Temp. Windchill Dew Point Humidity Pressure Visibility Wind Dir Wind Speed Gust Speed Precip Events Conditions
12:15 AM 48.2 °F - 6.8 °F 19% 29.99 in 10.0 mi Calm Calm - N/A   Clear
12:35 AM 48.2 °F - 8.6 °F 20% 29.99 in 10.0 mi NW 4.6 mph - N/A   Clear
12:55 AM 48.2 °F - 8.6 °F 20% 29.99 in 10.0 mi WNW 6.9 mph - N/A   Clear
1:15 AM 48.2 °F - 8.6 °F 20% 29.99 in 10.0 mi NW 9.2 mph - N/A   Clear
1:35 AM 50.0 °F - 10.4 °F 20% 29.99 in 10.0 mi NW 8.1 mph - N/A   Clear
1:55 AM 48.2 °F - 12.2 °F 24% 29.99 in 10.0 mi NNW 4.6 mph - N/A   Clear
2:15 AM 46.4 °F 42.4 °F 8.6 °F 22% 29.98 in 10.0 mi NNW 8.1 mph - N/A   Clear
2:35 AM 46.4 °F 42.4 °F 12.2 °F 25% 29.97 in 10.0 mi North 8.1 mph - N/A   Clear
2:55 AM 44.6 °F 43.1 °F 12.2 °F 27% 29.97 in 10.0 mi NNW 3.5 mph - N/A   Clear
3:15 AM 46.4 °F 42.9 °F 15.8 °F 29% 29.96 in 10.0 mi NNW 6.9 mph - N/A   Clear
3:35 AM 46.4 °F 43.5 °F 17.6 °F 32% 29.96 in 10.0 mi NNW 5.8 mph - N/A   Clear
3:55 AM 46.4 °F 43.5 °F 17.6 °F 32% 29.95 in 10.0 mi North 5.8 mph - N/A   Clear
4:15 AM 44.6 °F 42.2 °F 17.6 °F 34% 29.95 in 10.0 mi NNE 4.6 mph - N/A   Clear
4:35 AM 44.6 °F 40.7 °F 17.6 °F 34% 29.96 in 10.0 mi NNW 6.9 mph - N/A   Clear
4:55 AM 44.6 °F 43.1 °F 19.4 °F 37% 29.96 in 10.0 mi North 3.5 mph - N/A   Clear
5:15 AM 48.2 °F - 23.0 °F 37% 29.96 in 10.0 mi NNW 5.8 mph - N/A   Clear
5:35 AM 46.4 °F 43.5 °F 23.0 °F 40% 29.96 in 10.0 mi NNE 5.8 mph - N/A   Clear
5:55 AM 46.4 °F 42.4 °F 24.8 °F 43% 29.96 in 10.0 mi NNE 8.1 mph - N/A   Clear
6:15 AM 42.8 °F 38.0 °F 19.4 °F 39% 29.97 in 10.0 mi North 8.1 mph - N/A   Clear
6:35 AM 48.2 °F - 26.6 °F 43% 29.98 in 10.0 mi North 10.4 mph - N/A   Clear
6:55 AM 48.2 °F - 24.8 °F 40% 29.99 in 10.0 mi North 6.9 mph - N/A   Clear
7:15 AM 46.4 °F 42.9 °F 23.0 °F 40% 29.98 in 10.0 mi North 6.9 mph - N/A   Clear
7:35 AM 51.8 °F - 24.8 °F 35% 30.00 in 8.0 mi NNE 13.8 mph - N/A   Clear
7:55 AM 51.8 °F - 26.6 °F 38% 30.00 in 7.0 mi NNE 13.8 mph - N/A   Clear
8:15 AM 53.6 °F - 26.6 °F 35% 30.01 in 9.0 mi NNE 10.4 mph - N/A   Clear
8:35 AM 55.4 °F - 26.6 °F 33% 30.03 in 9.0 mi NE 15.0 mph - N/A   Clear
8:55 AM 55.4 °F - 28.4 °F 36% 30.03 in 8.0 mi NE 11.5 mph 18.4 mph N/A   Clear
9:15 AM 53.6 °F - 28.4 °F 38% 30.05 in 8.0 mi NNE 16.1 mph 20.7 mph N/A   Clear
9:35 AM 53.6 °F - 28.4 °F 38% 30.06 in 8.0 mi NNE 15.0 mph - N/A   Clear
9:55 AM 53.6 °F - 28.4 °F 38% 30.06 in 9.0 mi NNE 15.0 mph - N/A   Clear
10:15 AM 55.4 °F - 30.2 °F 38% 30.06 in 8.0 mi NE 17.3 mph 20.7 mph N/A   Clear
10:35 AM 57.2 °F - 30.2 °F 36% 30.06 in 9.0 mi NNE 12.7 mph - N/A   Clear
10:55 AM 57.2 °F - 28.4 °F 33% 30.06 in 9.0 mi North 17.3 mph - N/A   Clear
11:15 AM 57.2 °F - 28.4 °F 33% 30.07 in 10.0 mi North 15.0 mph - N/A   Clear
11:35 AM 60.8 °F - 30.2 °F 31% 30.07 in 10.0 mi North 15.0 mph - N/A   Clear
11:55 AM 60.8 °F - 30.2 °F 31% 30.07 in 10.0 mi North 12.7 mph - N/A   Clear
12:15 PM 62.6 °F - 30.2 °F 30% 30.07 in 10.0 mi NNE 9.2 mph - N/A   Clear
12:35 PM 62.6 °F - 30.2 °F 30% 30.07 in 10.0 mi North 8.1 mph - N/A   Clear
12:55 PM 64.4 °F - 30.2 °F 28% 30.06 in 10.0 mi North 6.9 mph - N/A   Partly Cloudy
1:15 PM 66.2 °F - 30.2 °F 26% 30.05 in 10.0 mi NNE 8.1 mph - N/A   Mostly Cloudy
1:35 PM 66.2 °F - 30.2 °F 26% 30.05 in 10.0 mi ENE 13.8 mph 20.7 mph N/A   Overcast
1:55 PM 66.2 °F - 30.2 °F 26% 30.04 in 10.0 mi ENE 16.1 mph - N/A   Overcast
2:15 PM 66.2 °F - 30.2 °F 26% 30.04 in 10.0 mi ENE 16.1 mph 19.6 mph N/A   Mostly Cloudy
2:35 PM 68.0 °F - 30.2 °F 24% 30.03 in 10.0 mi NE 12.7 mph 18.4 mph N/A   Mostly Cloudy
2:55 PM 69.8 °F - 30.2 °F 23% 30.03 in 10.0 mi NE 10.4 mph 18.4 mph N/A   Mostly Cloudy
3:15 PM 69.8 °F - 30.2 °F 23% 30.02 in 10.0 mi NE 12.7 mph 16.1 mph N/A   Mostly Cloudy
3:35 PM 69.8 °F - 30.2 °F 23% 30.01 in 10.0 mi NE 15.0 mph - N/A   Scattered Clouds
3:55 PM 69.8 °F - 28.4 °F 21% 30.01 in 10.0 mi NE 16.1 mph 20.7 mph N/A   Scattered Clouds
4:15 PM 69.8 °F - 28.4 °F 21% 30.00 in 10.0 mi NE 15.0 mph - N/A   Partly Cloudy
4:35 PM 69.8 °F - 28.4 °F 21% 29.99 in 10.0 mi ENE 16.1 mph 21.9 mph N/A   Clear
4:55 PM 69.8 °F - 28.4 °F 21% 29.98 in 10.0 mi NE 17.3 mph 24.2 mph N/A   Clear
5:15 PM 69.8 °F - 28.4 °F 21% 29.98 in 10.0 mi NE 15.0 mph 21.9 mph N/A   Clear
5:35 PM 69.8 °F - 28.4 °F 21% 29.97 in 10.0 mi NE 19.6 mph - N/A   Clear
5:55 PM 68.0 °F - 26.6 °F 21% 29.97 in 10.0 mi ENE 20.7 mph - N/A   Clear
6:15 PM 66.2 °F - 28.4 °F 24% 29.97 in 10.0 mi NE 19.6 mph 24.2 mph N/A   Clear
6:35 PM 66.2 °F - 26.6 °F 23% 29.97 in 10.0 mi NE 21.9 mph - N/A   Clear
6:55 PM 64.4 °F - 26.6 °F 24% 29.98 in 10.0 mi NE 20.7 mph - N/A   Clear
7:15 PM 62.6 °F - 26.6 °F 26% 29.99 in 10.0 mi ENE 17.3 mph - N/A   Clear
7:35 PM 60.8 °F - 26.6 °F 27% 30.01 in 10.0 mi ENE 16.1 mph - N/A   Clear
7:55 PM 60.8 °F - 26.6 °F 27% 30.01 in 10.0 mi NE 15.0 mph - N/A   Clear
8:15 PM 57.2 °F - 26.6 °F 31% 30.01 in 10.0 mi NE 16.1 mph - N/A   Clear
8:35 PM 55.4 °F - 24.8 °F 31% 30.02 in 10.0 mi NE 13.8 mph - N/A   Clear
8:55 PM 55.4 °F - 26.6 °F 33% 30.03 in 10.0 mi NE 15.0 mph - N/A   Clear
9:15 PM 53.6 °F - 24.8 °F 33% 30.04 in 10.0 mi NE 12.7 mph - N/A   Clear
9:35 PM 53.6 °F - 26.6 °F 35% 30.05 in 10.0 mi NE 17.3 mph - N/A   Clear
9:55 PM 53.6 °F - 26.6 °F 35% 30.06 in 10.0 mi NE 13.8 mph - N/A   Clear
10:15 PM 53.6 °F - 26.6 °F 35% 30.07 in 10.0 mi NE 17.3 mph 21.9 mph N/A   Clear
10:35 PM 53.6 °F - 26.6 °F 35% 30.08 in 10.0 mi NE 18.4 mph 21.9 mph N/A   Clear
10:55 PM 51.8 °F - 28.4 °F 41% 30.10 in 10.0 mi NE 18.4 mph - N/A   Clear
11:15 PM 51.8 °F - 26.6 °F 38% 30.11 in 10.0 mi NNE 18.4 mph 21.9 mph N/A   Clear
11:35 PM 51.8 °F - 28.4 °F 41% 30.12 in 10.0 mi NNE 18.4 mph 26.5 mph N/A   Clear
11:55 PM 51.8 °F - 28.4 °F 41% 30.12 in 10.0 mi NNE 16.1 mph - N/A   Clear